Find Starlink 5564

NORAD ID: 56134 Int'l Des: 2023-046 Owner: SPXS Country: US Constellation: starlink operational
LEOCIRCULAR

Aktuelle Ansicht

3D-Globus wird geladen...

Über Starlink 5564

Beschreibung wird geladen...

Nächste Überflüge

Passes for default location (London). Set your location on the main map for personalized predictions.

Höhenverlauf

Loading altitude history...

Zweizeiliger Elementsatz

1 56134U 23046AU 26150.09732027 .00001674 00000-0 70319-4 0 9990
2 56134 43.0040 46.9629 0001257 280.2458 79.8252 15.27589535174647
Epoch: 30. Mai 2026 • Age: 11 hours

Aktueller Status

Höhe 495.5 km
Geschwindigkeit 7.62 km/s
Subsatellitenpunkt -43.04°S, 132.44°W
Startdatum 29. März 2023
Alter 3.1 years
Typ internet

Technische Details

Klassifizierung Payload
Masse 305.00 kg
Trockenmasse 290.00 kg
Gesamtmasse 305.00 kg
Länge 0.20 m
Durchmesser 2.80 m
Spannweite 9.00 m
Form Box + pan
Hersteller SPXS
Bus-Typ Starlink
Phasenstatus In Orbit
Besitzer/Staat SPXS/US

Most Searched